Time,TemperatureF,DewpointF,PressureIn,WindDirection,WindDirectionDegrees,WindSpeedMPH,WindSpeedGustMPH,Humidity,HourlyPrecipIn,Conditions,Clouds,dailyrainin,SoftwareType,DateUTC
2013-03-02 06:22:00,66.0,59.0,30.12,East,85,11.0,21.0,79,0.00,,,0.00,,2013-03-02 16:22:00,
2013-03-02 06:32:00,66.0,59.0,30.12,East,80,13.0,22.0,79,0.00,,,0.00,,2013-03-02 16:32:00,
2013-03-02 06:42:00,66.0,59.0,30.12,East,80,13.0,22.0,79,0.00,,,0.00,,2013-03-02 16:42:00,
2013-03-02 06:52:00,67.0,59.0,30.12,East,80,15.0,28.0,76,0.00,,,0.00,,2013-03-02 16:52:00,
2013-03-02 07:01:00,68.0,60.0,30.13,East,82,12.0,26.0,75,0.00,,,0.00,,2013-03-02 17:01:00,
2013-03-02 07:11:00,68.0,60.0,30.13,East,82,12.0,26.0,75,0.00,,,0.00,,2013-03-02 17:11:00,
2013-03-02 07:21:00,68.0,59.0,30.13,East,82,15.0,23.0,72,0.00,,,0.00,,2013-03-02 17:21:00,
2013-03-02 07:31:00,68.0,58.0,30.14,NE,51,12.0,26.0,70,0.00,,,0.00,,2013-03-02 17:31:00,
2013-03-02 07:41:00,68.0,58.0,30.14,NE,51,12.0,26.0,70,0.00,,,0.00,,2013-03-02 17:41:00,
2013-03-02 07:52:00,69.0,57.0,30.15,East,82,10.0,23.0,65,0.00,,,0.00,,2013-03-02 17:52:00,
2013-03-02 08:01:00,69.0,56.0,30.15,East,85,6.0,21.0,64,0.00,,,0.00,,2013-03-02 18:01:00,
2013-03-02 08:11:00,69.0,56.0,30.15,East,85,6.0,21.0,64,0.00,,,0.00,,2013-03-02 18:11:00,
2013-03-02 08:21:00,69.0,58.0,30.15,NE,51,9.0,21.0,69,0.00,,,0.00,,2013-03-02 18:21:00,
2013-03-02 08:31:00,69.0,58.0,30.16,ENE,78,4.0,15.0,68,0.00,,,0.00,,2013-03-02 18:31:00,
2013-03-02 08:41:00,69.0,58.0,30.16,ENE,78,4.0,15.0,68,0.00,,,0.00,,2013-03-02 18:41:00,
2013-03-02 08:52:00,69.0,58.0,30.16,ENE,71,6.0,24.0,69,0.00,,,0.00,,2013-03-02 18:52:00,
2013-03-02 09:01:00,70.0,58.0,30.16,ESE,109,14.0,26.0,66,0.00,,,0.00,,2013-03-02 19:01:00,
2013-03-02 09:11:00,70.0,58.0,30.16,ESE,109,14.0,26.0,66,0.00,,,0.00,,2013-03-02 19:11:00,
2013-03-02 09:21:00,70.0,58.0,30.17,ENE,65,4.0,24.0,66,0.00,,,0.00,,2013-03-02 19:21:00,
2013-03-02 09:31:00,71.0,59.0,30.18,SE,139,8.0,18.0,66,0.00,,,0.00,,2013-03-02 19:31:00,
2013-03-02 09:42:00,71.0,59.0,30.18,SE,139,8.0,18.0,66,0.00,,,0.00,,2013-03-02 19:42:00,
2013-03-02 09:52:00,71.0,59.0,30.18,ENE,72,10.0,22.0,65,0.00,,,0.00,,2013-03-02 19:52:00,
2013-03-02 10:01:00,71.0,59.0,30.18,ENE,77,6.0,30.0,66,0.00,,,0.00,,2013-03-02 20:01:00,
2013-03-02 10:11:00,71.0,59.0,30.18,ENE,77,6.0,30.0,66,0.00,,,0.00,,2013-03-02 20:11:00,
2013-03-02 10:21:00,71.0,59.0,30.17,East,83,11.0,24.0,66,0.00,,,0.00,,2013-03-02 20:21:00,
2013-03-02 10:31:00,72.0,60.0,30.18,NNE,25,13.0,26.0,66,0.00,,,0.00,,2013-03-02 20:31:00,
2013-03-02 10:41:00,72.0,60.0,30.18,NNE,25,13.0,26.0,66,0.00,,,0.00,,2013-03-02 20:41:00,
2013-03-02 10:52:00,72.0,58.0,30.17,ESE,107,12.0,24.0,61,0.00,,,0.00,,2013-03-02 20:52:00,
2013-03-02 11:02:00,72.0,58.0,30.17,ENE,63,9.0,21.0,62,0.00,,,0.00,,2013-03-02 21:02:00,
2013-03-02 11:11:00,72.0,58.0,30.17,ENE,63,9.0,21.0,62,0.00,,,0.00,,2013-03-02 21:11:00,
2013-03-02 11:21:00,72.0,56.0,30.16,ESE,106,14.0,29.0,57,0.00,,,0.00,,2013-03-02 21:21:00,
2013-03-02 11:31:00,72.0,56.0,30.16,NNE,30,12.0,28.0,57,0.00,,,0.00,,2013-03-02 21:31:00,
2013-03-02 11:41:00,72.0,56.0,30.16,NNE,30,12.0,28.0,57,0.00,,,0.00,,2013-03-02 21:41:00,
2013-03-02 11:52:00,73.0,56.0,30.16,East,80,12.0,30.0,55,0.00,,,0.00,,2013-03-02 21:52:00,
2013-03-02 12:01:00,73.0,56.0,30.15,East,101,15.0,31.0,56,0.00,,,0.00,,2013-03-02 22:01:00,
2013-03-02 12:11:00,73.0,56.0,30.15,East,101,15.0,31.0,56,0.00,,,0.00,,2013-03-02 22:11:00,
2013-03-02 12:21:00,73.0,58.0,30.15,ENE,74,8.0,24.0,60,0.00,,,0.00,,2013-03-02 22:21:00,
2013-03-02 12:31:00,72.0,59.0,30.14,ENE,67,19.0,27.0,63,0.00,,,0.00,,2013-03-02 22:31:00,
2013-03-02 12:41:00,72.0,59.0,30.14,ENE,67,19.0,27.0,63,0.00,,,0.00,,2013-03-02 22:41:00,
2013-03-02 12:52:00,72.0,59.0,30.14,East,81,10.0,28.0,64,0.00,,,0.00,,2013-03-02 22:52:00,
2013-03-02 13:01:00,72.0,59.0,30.13,East,101,14.0,24.0,63,0.00,,,0.00,,2013-03-02 23:01:00,
2013-03-02 13:11:00,72.0,57.0,30.13,ENE,61,12.0,31.0,60,0.00,,,0.00,,2013-03-02 23:11:00,
2013-03-02 13:21:00,72.0,57.0,30.13,ENE,61,12.0,31.0,60,0.00,,,0.00,,2013-03-02 23:21:00,
2013-03-02 13:31:00,72.0,56.0,30.12,ENE,61,14.0,29.0,57,0.00,,,0.00,,2013-03-02 23:31:00,
2013-03-02 13:41:00,72.0,56.0,30.12,ENE,61,14.0,29.0,57,0.00,,,0.00,,2013-03-02 23:41:00,
2013-03-02 13:52:00,72.0,56.0,30.12,ENE,76,13.0,25.0,57,0.00,,,0.00,,2013-03-02 23:52:00,
2013-03-02 14:02:00,72.0,55.0,30.11,East,96,17.0,34.0,56,0.00,,,0.00,,2013-03-03 00:02:00,
2013-03-02 14:11:00,72.0,55.0,30.11,East,96,17.0,34.0,56,0.00,,,0.00,,2013-03-03 00:11:00,
2013-03-02 14:22:00,72.0,56.0,30.11,ENE,63,14.0,31.0,57,0.00,,,0.00,,2013-03-03 00:22:00,
2013-03-02 14:31:00,72.0,56.0,30.11,NE,39,16.0,25.0,58,0.00,,,0.00,,2013-03-03 00:31:00,
2013-03-02 14:42:00,72.0,56.0,30.11,NE,39,16.0,25.0,58,0.00,,,0.00,,2013-03-03 00:42:00,
2013-03-02 14:52:00,72.0,56.0,30.10,North,9,11.0,21.0,58,0.00,,,0.00,,2013-03-03 00:52:00,
2013-03-02 15:01:00,72.0,58.0,30.10,NE,41,10.0,27.0,61,0.00,,,0.00,,2013-03-03 01:01:00,
2013-03-02 15:11:00,72.0,58.0,30.10,NE,41,10.0,27.0,61,0.00,,,0.00,,2013-03-03 01:11:00,
2013-03-02 15:21:00,72.0,57.0,30.10,NNW,342,9.0,27.0,60,0.00,,,0.00,,2013-03-03 01:21:00,
2013-03-02 15:31:00,72.0,57.0,30.09,ENE,63,12.0,22.0,59,0.00,,,0.00,,2013-03-03 01:31:00,
2013-03-02 15:41:00,72.0,57.0,30.09,ENE,63,12.0,22.0,59,0.00,,,0.00,,2013-03-03 01:41:00,
2013-03-02 15:52:00,72.0,58.0,30.09,East,93,14.0,24.0,61,0.00,,,0.00,,2013-03-03 01:52:00,
2013-03-02 16:01:00,72.0,58.0,30.09,ENE,59,12.0,23.0,62,0.00,,,0.00,,2013-03-03 02:01:00,
2013-03-02 16:11:00,71.0,58.0,30.10,ENE,69,13.0,22.0,63,0.00,,,0.00,,2013-03-03 02:11:00,
2013-03-02 16:21:00,71.0,58.0,30.10,ENE,69,13.0,22.0,63,0.00,,,0.00,,2013-03-03 02:21:00,
2013-03-02 16:31:00,71.0,58.0,30.10,ENE,63,11.0,22.0,64,0.00,,,0.00,,2013-03-03 02:31:00,
2013-03-02 16:41:00,71.0,58.0,30.10,ENE,63,11.0,22.0,64,0.00,,,0.00,,2013-03-03 02:41:00,
2013-03-02 16:52:00,71.0,58.0,30.09,ENE,71,12.0,24.0,64,0.00,,,0.00,,2013-03-03 02:52:00,
2013-03-02 17:01:00,71.0,58.0,30.10,East,82,11.0,26.0,64,0.00,,,0.00,,2013-03-03 03:01:00,
2013-03-02 17:11:00,71.0,58.0,30.10,East,82,11.0,26.0,64,0.00,,,0.00,,2013-03-03 03:11:00,
2013-03-02 17:21:00,71.0,59.0,30.10,NE,54,9.0,23.0,66,0.00,,,0.00,,2013-03-03 03:21:00,
2013-03-02 17:31:00,70.0,59.0,30.11,ENE,57,14.0,21.0,68,0.00,,,0.00,,2013-03-03 03:31:00,
2013-03-02 17:41:00,70.0,59.0,30.11,ENE,57,14.0,21.0,68,0.00,,,0.00,,2013-03-03 03:41:00,
2013-03-02 17:52:00,70.0,59.0,30.11,ENE,57,12.0,19.0,69,0.00,,,0.00,,2013-03-03 03:52:00,
2013-03-02 18:01:00,70.0,59.0,30.11,East,85,11.0,25.0,69,0.00,,,0.00,,2013-03-03 04:01:00,
2013-03-02 18:11:00,70.0,59.0,30.11,East,85,11.0,25.0,69,0.00,,,0.00,,2013-03-03 04:11:00,
2013-03-02 18:21:00,69.0,58.0,30.12,ENE,76,10.0,23.0,69,0.00,,,0.00,,2013-03-03 04:21:00,
2013-03-02 18:31:00,69.0,59.0,30.12,East,82,1.0,11.0,70,0.00,,,0.00,,2013-03-03 04:31:00,
2013-03-02 18:41:00,69.0,59.0,30.12,East,82,1.0,11.0,70,0.00,,,0.00,,2013-03-03 04:41:00,
2013-03-02 18:52:00,69.0,59.0,30.12,East,92,4.0,15.0,71,0.00,,,0.00,,2013-03-03 04:52:00,
2013-03-02 19:01:00,69.0,59.0,30.13,ENE,65,5.0,19.0,71,0.00,,,0.00,,2013-03-03 05:01:00,
2013-03-02 19:11:00,69.0,59.0,30.13,ENE,65,5.0,19.0,71,0.00,,,0.00,,2013-03-03 05:11:00,
2013-03-02 19:21:00,69.0,59.0,30.14,NE,53,5.0,15.0,71,0.00,,,0.00,,2013-03-03 05:21:00,
2013-03-02 19:32:00,69.0,60.0,30.14,ENE,71,3.0,22.0,72,0.00,,,0.00,,2013-03-03 05:32:00,
2013-03-02 19:42:00,69.0,60.0,30.14,ENE,71,3.0,22.0,72,0.00,,,0.00,,2013-03-03 05:42:00,
2013-03-02 19:52:00,69.0,60.0,30.15,North,5,11.0,19.0,72,0.00,,,0.00,,2013-03-03 05:52:00,
2013-03-02 20:01:00,69.0,60.0,30.16,ENE,78,10.0,21.0,72,0.00,,,0.00,,2013-03-03 06:01:00,
2013-03-02 20:11:00,69.0,60.0,30.16,ENE,78,10.0,21.0,72,0.00,,,0.00,,2013-03-03 06:11:00,
2013-03-02 20:21:00,69.0,59.0,30.16,East,81,10.0,25.0,70,0.00,,,0.00,,2013-03-03 06:21:00,
2013-03-02 20:31:00,69.0,59.0,30.17,East,92,9.0,21.0,70,0.00,,,0.00,,2013-03-03 06:31:00,
2013-03-02 20:42:00,69.0,59.0,30.17,East,92,9.0,21.0,70,0.00,,,0.00,,2013-03-03 06:42:00,
2013-03-02 20:52:00,69.0,59.0,30.17,ENE,67,5.0,26.0,70,0.00,,,0.00,,2013-03-03 06:52:00,
2013-03-02 21:01:00,69.0,58.0,30.18,East,98,8.0,27.0,69,0.00,,,0.00,,2013-03-03 07:01:00,
2013-03-02 21:11:00,69.0,58.0,30.18,East,98,8.0,27.0,69,0.00,,,0.00,,2013-03-03 07:11:00,
2013-03-02 21:21:00,69.0,59.0,30.19,ENE,71,9.0,30.0,70,0.00,,,0.00,,2013-03-03 07:21:00,
2013-03-02 21:31:00,69.0,59.0,30.20,ESE,110,10.0,25.0,70,0.00,,,0.00,,2013-03-03 07:31:00,
2013-03-02 21:42:00,69.0,59.0,30.20,ESE,110,10.0,25.0,70,0.00,,,0.00,,2013-03-03 07:42:00,
2013-03-02 21:52:00,69.0,59.0,30.20,NE,53,5.0,30.0,71,0.00,,,0.00,,2013-03-03 07:52:00,
2013-03-02 22:01:00,69.0,59.0,30.20,NE,53,5.0,30.0,71,0.00,,,0.00,,2013-03-03 08:01:00,
2013-03-02 22:11:00,69.0,59.0,30.20,NE,53,5.0,30.0,71,0.00,,,0.00,,2013-03-03 08:11:00,
2013-03-02 22:21:00,69.0,59.0,30.20,NE,53,5.0,30.0,71,0.00,,,0.00,,2013-03-03 08:21:00,